Location: Boiro
(42.6475°N, 8.8834°W)
Time: 13:00:12
(UTC+02:00)

deb Agena D - Pass Details

Date: 04 July 2022
Orbit: 997 x 1025 km, 100.1° (Epoch: 16 August)

Event Time Altitude Azimuth Distance (km) Brightness Sun altitude
Exits shadow 00:51:19 26° 117° (ESE) 1,897 ? -19.8°
Maximum altitude 00:54:21 42° 65° (ENE) 1,428 ? -20.1°
Drops below altitude 10° 01:00:15 10° 357° (N) 2,828 ? -20.5°
Sets 01:02:52 0° 351° (N) 3,782 ? -20.7°
